GPS BIIRM-3 (PRN 12)

Last updated on Sun Nov 16 2025 00:04:22 GMT+0000 (Coordinated Universal Time)

1 29601U 06052A 25319.02707932 -.00000031 00000+0 00000+0 0 9994 2 29601 54.9772 222.4979 0086956 87.1700 273.8691 2.00571684139110
UTC large
Height (km)
Speed (km/s)
/
Latitude / Longitude
Inclination (degrees)
Orbital Period (minutes)
Azimuth
Elevation
Range (km)
Doppler Factor

Next 0 passes for location: London (51.5072 / 0.1276)

Sorry there are no passes over London.